Wind_Speed
27 27 27 27 28 28 28 29 29 29 29 29 29 29 29 30 30 30 31 31 31 32 32 32 34 35 35 36 36 37 37 37 36 36 36 37 37 37 38 38 38 38 39
27 27 28 28 28 28 28 29 28 28 29 29 29 28 28 28 29 29 30 30 31 31 31 31 32 33 35 35 36 36 37 37 37 36 37 37 37 37 37 38 38 39 38
28 27 28 28 28 28 28 28 28 27 27 27 28 28 27 27 28 28 29 29 29 29 29 29 30 32 33 33 34 35 36 36 36 36 36 36 36 37 37 38 38 38 38
26 27 27 28 27 27 28 28 27 26 26 25 25 26 26 26 26 26 26 26 26 27 27 27 27 28 29 31 32 32 32 32 32 32 32 33 34 35 35 36 37 38 37
26 26 27 27 27 27 26 26 25 25 24 24 24 24 24 23 24 24 24 23 24 24 25 25 25 26 27 27 28 28 29 29 29 29 29 30 31 32 33 34 34 34 33
25 25 26 26 25 24 24 23 23 22 22 21 21 21 21 21 21 21 21 21 21 22 22 23 23 23 23 23 25 25 26 27 27 27 28 27 28 29 30 31 31 29 29
23 23 23 22 22 22 21 21 21 20 20 19 19 19 19 19 20 20 20 20 20 20 20 21 21 21 21 21 21 21 22 23 23 24 25 25 25 26 26 26 26 25 24
21 21 20 20 19 19 18 18 18 17 17 16 17 17 17 18 18 18 18 18 18 18 18 19 19 19 19 18 18 18 19 19 20 21 22 22 22 22 21 20 20 19 19
18 18 18 17 16 15 14 14 14 14 14 14 14 15 15 15 16 15 15 15 15 16 16 16 16 16 15 15 15 15 16 17 18 18 18 18 18 17 17 17 16 16 16
15 14 13 12 11 11 11 11 11 11 11 11 11 11 11 12 12 12 12 12 12 13 12 12 12 12 12 12 12 13 13 13 14 14 14 14 15 14 13 13 13 14 15
12 11 10 9 8 8 8 8 9 9 8 8 9 10 9 9 9 9 9 9 9 8 8 8 8 8 8 9 9 9 10 10 10 11 11 11 11 10 11 11 11 12 13
8 7 7 6 6 6 6 6 6 6 5 6 6 6 6 6 6 6 6 6 6 5 5 5 6 6 6 6 7 7 7 8 8 9 9 9 8 8 8 9 10 10 11
6 6 6 5 4 4 3 4 4 3 3 3 3 3 3 3 3 3 3 2 2 2 2 2 2 3 4 4 4 5 6 6 7 7 7 7 7 7 7 7 8 8 9
6 5 5 4 4 3 3 2 1 0 1 0 0 0 0 0 1 1 1 2 2 2 1 1 2 2 3 3 4 5 5 4 4 4 4 5 5 6 6 7 7 7 7
6 6 6 6 5 5 5 5 5 4 4 4 4 4 4 4 4 5 4 4 4 4 4 4 4 4 4 4 4 4 3 3 3 3 4 4 5 5 6 6 6 6 7
8 8 8 8 8 8 9 9 9 8 8 8 7 7 7 7 7 7 7 7 7 6 6 6 6 5 5 5 4 4 4 4 4 3 4 4 4 5 5 5 5 6 6
11 11 11 11 11 11 12 12 11 11 11 11 10 10 10 10 10 10 10 9 9 9 8 8 7 7 6 6 5 5 5 4 4 4 4 4 5 5 5 5 5 6 6
12 13 13 13 13 13 13 13 12 12 12 12 12 13 13 13 12 12 11 11 10 10 9 8 8 7 7 6 6 6 5 5 5 5 5 5 5 5 5 5 5 6 7
13 14 14 14 14 14 14 13 13 13 13 13 14 14 14 14 13 13 12 12 11 10 10 9 9 8 8 8 7 7 7 6 6 6 6 6 6 6 6 6 7 7 8
14 15 15 15 15 14 15 14 14 14 15 15 15 15 15 14 14 14 13 12 12 11 11 11 10 10 10 9 9 9 8 8 7 7 7 7 7 7 7 7 7 8 8
15 15 15 16 16 16 16 16 16 16 16 16 15 15 14 14 14 13 13 13 12 12 12 11 11 11 11 10 10 9 9 8 8 8 8 8 8 8 8 8 9 9 10
16 16 16 16 16 16 16 16 17 17 16 16 15 15 14 14 14 13 13 12 12 11 11 10 10 10 10 10 9 9 9 8 8 8 8 9 9 9 9 10 11 11 12
15 15 15 15 16 16 16 16 16 16 16 15 15 14 14 13 13 13 12 11 11 11 10 10 10 10 10 10 10 10 9 9 9 9 9 10 10 11 12 12 13 14 14
14 14 14 14 15 15 15 15 15 15 14 14 14 13 13 13 12 12 12 11 11 11 10 10 10 10 10 10 10 10 10 10 10 10 11 11 12 13 14 15 15 16 17
12 13 13 14 14 13 14 13 13 13 13 13 13 12 12 12 11 11 11 11 11 11 11 10 10 10 11 11 11 11 11 12 12 13 13 14 15 16 17 18 18 18 19
11 11 12 12 12 12 12 12 12 12 12 12 12 11 11 11 11 10 10 11 11 11 11 11 11 11 12 12 12 12 13 13 14 15 15 16 17 18 19 20 21 21 22
Wind_Direction
285 284 283 282 281 280 280 278 276 275 274 273 271 270 268 267 265 263 262 261 261 261 262 262 259 258 260 261 261 262 262 261 263 264 264 266 266 266 266 267 268 271 273
286 285 284 283 283 282 281 280 278 276 274 273 270 269 267 266 264 262 263 263 262 262 262 261 260 259 260 261 262 262 262 262 263 264 265 266 266 267 268 269 271 274 275
286 286 285 284 284 283 281 282 280 277 275 274 271 270 267 265 264 264 264 264 262 264 263 261 260 260 261 261 262 262 262 263 264 264 266 266 267 269 271 272 274 275 276
287 286 286 286 285 283 282 281 280 278 276 274 272 270 266 264 264 265 265 266 264 263 262 262 261 260 261 264 263 263 263 264 264 265 266 267 269 271 273 274 276 276 276
290 288 288 287 286 284 283 281 279 278 276 274 272 269 265 263 263 263 263 265 265 264 263 263 265 265 265 266 265 265 264 264 264 265 268 269 270 272 273 274 276 276 275
292 290 290 289 287 285 283 281 279 278 275 274 271 269 266 265 265 265 265 267 267 266 265 267 268 269 268 268 268 267 266 267 267 268 271 272 271 271 271 273 274 275 274
293 293 292 289 288 285 281 279 278 277 275 273 271 269 268 267 267 267 266 265 265 266 266 267 268 269 270 270 270 270 269 271 272 272 272 273 274 272 271 271 272 274 275
295 294 291 290 288 284 279 279 278 278 274 271 271 270 268 268 268 269 267 265 264 265 267 267 267 269 271 272 271 272 273 275 275 276 275 277 276 274 274 274 273 273 274
296 294 293 291 288 284 281 278 277 276 275 274 272 272 269 267 267 268 267 266 265 266 266 265 266 269 269 272 274 274 275 276 276 277 276 278 280 279 277 277 273 274 275
301 301 299 296 292 286 279 276 278 277 273 272 271 273 270 267 265 263 262 264 266 265 262 263 263 267 270 274 278 281 281 282 282 280 279 280 281 278 275 274 276 276 278
306 307 305 304 302 296 289 280 279 278 272 270 273 274 272 270 267 264 260 261 264 264 263 263 263 269 272 275 281 285 289 290 287 286 286 289 284 280 278 278 278 280 280
316 319 320 318 311 300 295 286 284 279 277 276 277 276 274 268 262 261 260 260 254 253 258 259 262 267 272 275 279 287 297 297 290 289 289 287 281 281 284 284 280 279 279
340 338 335 333 330 321 307 294 290 285 280 278 276 278 258 259 254 249 250 235 218 217 250 270 277 281 289 294 295 301 306 305 304 300 292 286 286 289 290 292 291 287 288
2 4 7 12 11 13 11 11 25 61 34 360 306 291 309 181 187 185 148 117 109 108 80 47 23 11 351 342 333 327 321 319 318 310 305 301 298 295 294 296 297 294 293
34 39 43 46 46 51 63 71 80 85 90 87 89 91 86 85 85 89 92 93 94 90 79 61 46 31 20 14 5 -0 1 358 347 340 329 320 315 311 306 300 297 298 296
55 58 61 68 69 70 73 78 79 80 81 82 86 86 85 84 85 88 92 91 89 84 76 65 54 48 44 40 34 29 27 21 9 355 342 335 334 331 324 316 306 303 304
68 69 71 75 76 77 77 79 80 80 79 81 82 83 85 86 87 88 88 87 84 78 73 69 62 57 53 47 41 37 34 27 18 11 2 351 345 340 334 329 323 319 314
73 74 77 79 81 80 79 79 79 80 80 81 83 85 86 85 84 84 83 82 80 76 72 67 62 56 50 44 38 36 32 29 25 18 11 6 1 355 349 342 336 329 324
77 78 79 81 82 81 80 81 82 83 84 85 85 85 85 84 84 83 82 80 77 73 68 63 58 54 49 45 41 39 38 37 36 32 24 17 8 358 350 343 338 333 329
80 80 80 80 80 81 81 84 85 85 87 87 86 86 85 83 81 80 78 75 71 69 66 63 60 57 53 50 47 46 45 42 38 33 26 18 10 2 356 348 342 337 334
83 83 83 83 82 82 83 86 85 86 86 85 84 83 82 80 78 76 74 72 69 67 64 62 59 56 53 50 47 45 42 37 32 26 19 13 8 1 354 348 342 338 334
86 86 85 86 85 83 84 86 86 84 83 83 82 81 80 78 76 74 72 69 66 63 59 55 53 51 48 44 41 38 34 29 23 18 13 7 360 353 347 342 338 333 330
87 85 85 86 86 85 85 86 86 84 83 81 80 78 76 75 73 70 67 63 59 57 55 53 50 47 42 37 33 27 22 17 13 8 2 358 352 348 342 338 334 331 328
87 87 87 88 88 86 86 86 85 83 81 79 76 75 73 70 67 64 60 57 54 52 49 47 42 37 32 27 23 20 16 10 4 358 353 347 342 338 335 332 329 326 324
89 88 88 88 88 86 86 85 83 81 78 76 74 71 67 64 60 57 54 51 48 44 40 35 30 24 19 15 12 7 3 359 355 350 345 341 337 334 332 331 328 324 321
91 91 91 90 89 88 86 83 81 78 75 72 69 65 60 56 52 48 45 42 39 35 30 25 21 16 11 7 2 357 353 350 346 343 339 337 334 333 332 330 327 324 322
Height
5773 5772 5770 5768 5767 5765 5764 5762 5761 5761 5760 5759 5758 5758 5758 5758 5758 5759 5759 5760 5760 5760 5761 5762 5762 5764 5764 5765 5766 5766 5767 5767 5767 5767 5767 5767 5767 5767 5767 5767 5766 5766 5765
5766 5764 5762 5760 5759 5757 5756 5754 5753 5752 5752 5751 5750 5750 5750 5750 5750 5751 5751 5751 5752 5752 5753 5753 5754 5755 5755 5756 5757 5758 5758 5758 5759 5759 5759 5759 5759 5759 5758 5758 5757 5756 5756
5758 5756 5754 5752 5751 5749 5748 5746 5745 5744 5744 5743 5742 5742 5742 5742 5743 5743 5743 5744 5744 5744 5745 5746 5746 5747 5747 5748 5748 5749 5749 5750 5750 5750 5750 5750 5750 5750 5749 5749 5748 5747 5747
5750 5748 5746 5744 5743 5741 5740 5739 5738 5737 5736 5735 5735 5735 5735 5735 5735 5736 5736 5736 5737 5737 5738 5738 5738 5739 5739 5740 5740 5741 5741 5741 5741 5742 5742 5742 5741 5741 5741 5740 5740 5739 5738
5743 5741 5738 5737 5735 5734 5732 5731 5730 5729 5729 5728 5728 5728 5727 5728 5728 5728 5729 5729 5730 5730 5731 5731 5732 5732 5732 5732 5732 5733 5733 5733 5734 5734 5734 5733 5733 5733 5732 5731 5731 5730 5729
5735 5733 5731 5729 5728 5726 5725 5724 5723 5723 5722 5722 5722 5721 5721 5721 5722 5722 5723 5723 5723 5724 5725 5725 5725 5726 5725 5725 5725 5726 5726 5726 5727 5727 5726 5726 5726 5725 5724 5723 5722 5722 5721
5729 5727 5725 5723 5721 5720 5719 5718 5717 5717 5716 5716 5716 5716 5716 5716 5716 5717 5717 5718 5718 5719 5719 5720 5720 5720 5720 5720 5720 5720 5720 5720 5720 5720 5720 5719 5719 5718 5717 5716 5715 5714 5714
5723 5721 5719 5717 5716 5714 5713 5712 5712 5712 5712 5711 5711 5711 5711 5711 5711 5712 5712 5713 5713 5713 5714 5714 5715 5714 5714 5714 5715 5715 5714 5714 5714 5714 5714 5713 5712 5711 5711 5710 5709 5709 5709
5718 5716 5714 5712 5711 5709 5708 5708 5708 5707 5707 5707 5707 5706 5706 5707 5707 5707 5708 5708 5708 5709 5709 5710 5710 5710 5710 5710 5710 5710 5710 5709 5709 5708 5708 5707 5706 5706 5705 5705 5705 5704 5704
5714 5712 5710 5708 5707 5706 5705 5705 5704 5704 5704 5703 5703 5703 5703 5703 5703 5703 5704 5704 5704 5705 5705 5705 5706 5706 5706 5706 5706 5706 5706 5705 5705 5704 5703 5703 5702 5702 5701 5701 5701 5701 5700
5710 5709 5707 5705 5704 5703 5703 5702 5702 5701 5701 5701 5700 5700 5700 5700 5700 5700 5701 5701 5702 5702 5702 5702 5703 5703 5703 5703 5703 5703 5702 5702 5701 5701 5700 5700 5699 5698 5698 5698 5697 5697 5697
5708 5706 5705 5704 5703 5702 5701 5700 5699 5699 5699 5699 5699 5699 5698 5698 5698 5699 5699 5699 5699 5700 5700 5700 5701 5701 5701 5701 5701 5700 5700 5699 5698 5698 5697 5697 5696 5696 5695 5695 5695 5694 5694
5707 5705 5704 5703 5701 5700 5699 5699 5698 5698 5698 5698 5697 5697 5697 5697 5697 5697 5697 5698 5698 5699 5699 5699 5699 5700 5700 5699 5699 5698 5698 5697 5696 5695 5695 5694 5694 5694 5693 5693 5692 5692 5691
5706 5705 5703 5702 5701 5700 5699 5698 5698 5697 5697 5697 5697 5697 5697 5697 5697 5697 5697 5697 5698 5698 5698 5698 5698 5698 5698 5698 5697 5697 5696 5695 5694 5694 5694 5693 5692 5692 5692 5691 5691 5690 5690
5706 5705 5704 5703 5701 5700 5699 5699 5698 5698 5698 5698 5698 5697 5697 5697 5697 5697 5697 5698 5698 5698 5698 5699 5699 5698 5698 5697 5697 5696 5695 5695 5694 5694 5693 5692 5691 5691 5690 5689 5689 5688 5688
5708 5707 5705 5704 5703 5702 5701 5701 5700 5700 5699 5699 5699 5699 5699 5699 5698 5699 5699 5699 5699 5699 5699 5699 5699 5699 5698 5698 5697 5696 5696 5695 5694 5693 5693 5692 5691 5690 5689 5689 5688 5687 5686
5710 5709 5708 5707 5706 5705 5704 5704 5703 5703 5702 5702 5702 5701 5701 5701 5701 5701 5701 5701 5701 5701 5701 5701 5700 5700 5699 5699 5698 5697 5696 5696 5695 5694 5693 5692 5691 5690 5689 5688 5687 5686 5685
5713 5712 5711 5710 5709 5708 5708 5707 5707 5706 5706 5705 5705 5705 5704 5704 5704 5704 5704 5704 5704 5703 5703 5702 5702 5701 5701 5700 5699 5698 5697 5696 5695 5694 5693 5692 5691 5690 5689 5688 5687 5685 5684
5716 5715 5714 5713 5713 5712 5711 5711 5710 5710 5709 5709 5708 5708 5708 5708 5707 5707 5707 5707 5706 5706 5705 5704 5704 5703 5702 5701 5700 5699 5698 5697 5696 5695 5694 5693 5692 5690 5689 5688 5686 5685 5684
5720 5719 5718 5718 5717 5716 5715 5715 5714 5714 5713 5713 5713 5712 5712 5712 5711 5711 5710 5709 5709 5708 5707 5707 5706 5705 5704 5703 5702 5701 5700 5699 5697 5696 5695 5694 5692 5691 5689 5688 5686 5685 5683
5724 5723 5723 5722 5721 5720 5719 5719 5718 5718 5717 5717 5717 5716 5716 5715 5715 5714 5713 5713 5712 5711 5710 5709 5708 5707 5706 5705 5704 5702 5701 5700 5699 5697 5696 5694 5693 5691 5689 5687 5686 5684 5682
5728 5727 5727 5726 5725 5725 5724 5723 5723 5722 5722 5721 5721 5720 5720 5719 5719 5718 5717 5716 5715 5714 5713 5712 5711 5710 5708 5707 5706 5704 5702 5701 5700 5698 5697 5695 5693 5691 5689 5687 5685 5683 5681
5732 5731 5731 5730 5730 5729 5729 5728 5727 5727 5726 5726 5725 5724 5724 5723 5722 5721 5720 5719 5718 5717 5715 5714 5713 5712 5710 5708 5707 5705 5704 5702 5700 5699 5697 5695 5693 5691 5689 5686 5684 5681 5679
5736 5735 5735 5734 5734 5733 5733 5732 5732 5731 5730 5730 5729 5728 5727 5726 5725 5724 5723 5722 5720 5719 5718 5716 5715 5713 5712 5710 5708 5706 5704 5702 5700 5698 5696 5694 5692 5689 5687 5684 5681 5679 5676
5740 5739 5739 5738 5738 5737 5737 5736 5736 5735 5734 5733 5732 5731 5730 5729 5728 5727 5726 5724 5723 5721 5720 5718 5716 5715 5713 5711 5709 5707 5705 5703 5700 5698 5695 5693 5690 5687 5685 5682 5678 5675 5672
5743 5743 5742 5742 5741 5741 5740 5740 5739 5738 5737 5736 5735 5734 5733 5732 5731 5729 5728 5726 5725 5723 5721 5719 5718 5716 5714 5712 5709 5707 5705 5702 5700 5697 5694 5691 5688 5685 5682 5678 5675 5671 5668